[[{"header":{"parameterUnit":"m.s-1","parameterCategory":1,"la1":30.2991,"la2":30.254,"lo1":-89.0895,"lo2":-89.0444,"dy":0.0017,"dx":0.0017,"nx":28,"ny":28,"refTime":"2023-10-25T09:00:00:Z","depth":0,"parameterNumber":2,"parameterNumberName":"U-component_of_WINDS"},"data":[0,0,0,0,0,0,0,0,0,0,0,0,0,0,0,0,0,0,0,0,0,0,0,0,0,0,0,0,0,0,0,0,0,0,0,0,0,0,0,0,0,0,0,0,0,0,0,0,0,0,0,0,0,0,0,0,0,0,-4.4768,-4.4769,0,-4.4874,-4.4875,-4.4876,-4.4829,-4.4826,-4.4824,-4.4821,-4.4927,-4.4932,-4.4938,0,0,0,0,0,0,0,0,0,0,0,0,0,-4.4523,-4.4527,-4.4767,-4.4769,-4.477,-4.4874,-4.4875,-4.4876,-4.483,-4.4826,-4.4823,-4.482,-4.4926,-4.4932,-4.4938,0,0,0,0,0,0,0,0,0,0,0,0,0,-4.4629,-4.4529,-4.4767,-4.4759,-4.476,-4.4873,-4.4875,-4.4877,-4.483,-4.4826,-4.4822,-4.4819,-4.4924,-4.4931,-4.4939,-4.5066,0,0,-4.4963,-4.4967,0,0,0,0,0,0,0,0,-4.4623,-4.4638,-4.4759,-4.476,-4.4761,-4.4834,-4.4827,-4.494,-4.4831,-4.4803,-4.4821,-4.4817,-4.4899,-4.4909,-4.4937,-4.5071,-4.5075,-4.4964,-4.4969,-4.4972,-4.4974,0,0,0,0,0,0,0,-4.4616,-4.4633,-4.4809,-4.4761,-4.4762,-4.475,-4.4761,-4.4849,-4.4872,-4.4805,-4.4802,-4.4816,-4.4899,-4.493,-4.494,-4.5077,-4.4964,-4.4971,-4.4975,-4.4979,-4.532,-4.5324,0,0,0,0,0,0,-4.4609,-4.4627,-4.4806,-4.4813,-4.4681,-4.4758,-4.477,-4.4815,-4.4871,-4.4876,-4.4819,-4.4813,-4.4918,-4.493,-4.4943,-4.5095,-4.4972,-4.4979,-4.4984,-4.5316,-4.5321,-4.5326,0,0,0,0,0,0,-4.4603,-4.4625,-4.4802,-4.4719,-4.4741,-4.4766,-4.4817,-4.4819,-4.4849,-4.4881,-4.4885,-4.4846,-4.4916,-4.4932,-4.5036,-4.5098,-4.4983,-4.499,-4.5311,-4.5317,-4.5323,-4.5399,0,0,0,0,0,0,-4.4597,-4.4623,-4.4672,-4.4721,-4.4745,-4.4893,-4.4821,-4.4824,-4.4864,-4.4857,-4.4908,-4.4912,-4.4914,-4.5024,-4.5044,-4.5106,-4.4996,-4.5305,-4.5314,-4.5321,-4.5391,-4.5407,-4.5421,0,0,0,0,0,-4.4588,-4.4688,-4.4675,-4.4697,-4.4807,-4.4897,-4.4911,-4.4912,-4.4869,-4.4917,-4.4938,-4.4911,-4.5089,-4.5035,-4.5057,-4.5123,-4.5301,-4.5311,-4.5321,-4.5384,-4.5404,-4.5421,0,0,0,0,0,0,-4.4645,-4.4695,-4.468,-4.4799,-4.4845,-4.4889,-4.495,-4.4933,-4.499,-4.4981,-4.4979,-4.4991,-4.5099,-4.5121,-4.5061,-4.5249,-4.5188,-4.5203,-4.5229,-4.5248,-4.5263,-4.5254,-4.5003,0,0,0,0,0,-4.4672,-4.4742,-4.4781,-4.4882,-4.4906,-4.4925,-4.4964,-4.4961,-4.5007,-4.5026,-4.5054,-4.5099,-4.5165,-4.5208,-4.5271,-4.5395,-4.5405,-4.5451,-4.5466,-4.5479,-4.549,-4.5557,-4.5578,-4.5358,-4.5358,-4.5358,0,0,-4.4727,-4.4763,-4.4806,-4.4895,-4.4929,-4.5001,-4.4941,-4.5019,-4.5072,-4.5037,-4.5137,-4.516,-4.521,-4.5325,-4.5377,-4.5347,-4.5554,-4.5491,-4.5501,-4.5506,-4.5569,-4.559,-4.5609,-4.5364,-4.5363,-4.5362,0,0,-4.4863,-4.4898,-4.4986,-4.5023,-4.5077,-4.5089,-4.511,-4.5159,-4.5172,-4.5273,-4.5248,-4.5312,-4.5426,-4.5462,-4.5496,-4.565,-4.5626,-4.5671,-4.5748,-4.5813,-4.5831,-4.5846,-4.5899,-4.5919,-4.5683,-4.5683,-4.5683,0,-4.4924,-4.5032,-4.5033,-4.5114,-4.5153,-4.5128,-4.5216,-4.5252,-4.5323,-4.535,-4.5317,-4.546,-4.5493,-4.5615,-4.5653,-4.5682,-4.5705,-4.5663,-4.5828,-4.5844,-4.5858,-4.5909,-4.5929,-4.5688,-4.5687,-4.5687,-4.5686,0,-4.5104,-4.5179,-4.5244,-4.5314,-4.5361,-4.5446,-4.546,-4.5507,-4.5501,-4.5517,-4.562,-4.5658,-4.5728,-4.5758,-4.5752,-4.588,-4.586,-4.5828,-4.5766,-4.5884,-4.5931,-4.5951,-4.5695,-4.5693,-4.5692,-4.569,0,0,-4.5275,-4.5348,-4.5372,-4.5403,-4.5462,-4.552,-4.5604,-4.5674,-4.5714,-4.5765,-4.5834,-4.5933,-4.5904,-4.5942,-4.5941,-4.5999,-4.6117,-4.5959,-4.5961,-4.5985,-4.6259,-4.6281,-4.6303,-4.6103,-4.6107,-4.611,-4.6254,0,-4.5415,-4.5562,-4.5567,-4.57,-4.577,-4.5748,-4.582,-4.5864,-4.5882,-4.5943,-4.5962,-4.6031,-4.5989,-4.6012,-4.6069,-4.609,-4.6171,-4.608,-4.6166,-4.6169,-4.6151,-4.6328,-4.6351,-4.6485,-4.6273,-4.6276,-4.6278,0,-4.5596,-4.5654,-4.5795,-4.5845,-4.5874,-4.5939,-4.6004,-4.6063,-4.6113,-4.6121,-4.6166,-4.6157,-4.6242,-4.6181,-4.6297,-4.6235,-4.6271,-4.6288,-4.6293,-4.6298,-4.6228,-4.6336,-4.6528,-4.6547,-4.6308,-4.6305,-4.6303,0,-4.5705,-4.5818,-4.5917,-4.5946,-4.6007,-4.6053,-4.6081,-4.6127,-4.6168,-4.6225,-4.6252,-4.6318,-4.6354,-4.6405,-4.6413,-4.6368,-4.653,-4.647,-4.6539,-4.6538,-4.6571,-4.6568,-4.6769,-4.6599,-4.6598,-4.6598,-4.6598,0,-4.5858,-4.5945,-4.5967,-4.6028,-4.6124,-4.613,-4.6225,-4.6249,-4.6291,-4.6355,-4.6341,-4.6402,-4.6411,-4.6474,-4.6482,-4.6577,-4.6593,-4.6602,-4.6602,-4.6602,-4.66,-4.6623,-4.6613,-4.6603,-4.6602,-4.6601,-4.66,0,-4.5994,-4.6013,-4.6119,-4.617,-4.6184,-4.6253,-4.6295,-4.6353,-4.6371,-4.6453,-4.6472,-4.6499,-4.6573,-4.6588,-4.6674,-4.668,-4.6792,-4.6785,-4.6775,-4.6774,-4.6841,-4.6834,-4.7061,-4.709,-4.6903,-4.6905,-4.6907,0,-4.609,-4.6156,-4.6214,-4.6257,-4.6287,-4.6356,-4.6399,-4.6408,-4.6453,-4.6516,-4.6566,-4.6639,-4.6697,-4.6815,-4.6842,-4.6909,-4.6901,-4.6976,-4.6911,-4.6908,-4.69,-4.6895,-4.6901,-4.6988,-4.699,-4.6991,-4.6993,0,-4.6256,-4.6263,-4.6326,-4.6393,-4.6445,-4.6498,-4.6548,-4.6584,-4.66,-4.6652,-4.6727,-4.6773,-4.6863,-4.6934,-4.7001,-4.7029,-4.7013,-4.7014,-4.7033,-4.7031,-4.7022,-4.7026,-4.6807,-4.7008,-4.7006,-4.7005,-4.7004,-4.7004,-4.6373,-4.6431,-4.6481,-4.6552,-4.6592,-4.664,-4.6696,-4.6722,-4.6785,-4.6859,-4.6861,-4.6944,-4.6993,-4.7081,-4.7114,-4.7178,-4.7154,-4.7182,-4.7189,-4.7195,-4.72,-4.7015,-4.719,-4.719,-4.719,-4.7189,-4.7189,0,-4.6537,-4.6569,-4.6635,-4.6706,-4.6762,-4.6745,-4.6801,-4.6848,-4.6921,-4.6969,-4.7027,-4.7114,-4.7184,-4.7218,-4.7287,-4.7332,-4.7327,-4.735,-4.7345,-4.7352,-4.7219,-4.7194,-4.7353,-4.7353,-4.7353,-4.7353,-4.7353,-4.7353,-4.6629,-4.6726,-4.6739,-4.6855,-4.6886,-4.6967,-4.7,-4.7045,-4.7083,-4.7181,-4.7239,-4.7262,-4.7304,-4.7376,-4.744,-4.7448,-4.7473,-4.7499,-4.7503,-4.7378,-4.7361,-4.7345,-4.7322,-4.7505,-4.7505,-4.7631,-4.7632,-4.7633]},{"header":{"parameterUnit":"m.s-1","parameterCategory":1,"la1":30.2991,"la2":30.254,"lo1":-89.0895,"lo2":-89.0444,"dy":0.0017,"dx":0.0017,"nx":28,"ny":28,"refTime":"2023-10-25T09:00:00:Z","depth":0,"parameterNumber":3,"parameterNumberName":"V-component_of_WINDS"},"data":[0,0,0,0,0,0,0,0,0,0,0,0,0,0,0,0,0,0,0,0,0,0,0,0,0,0,0,0,0,0,0,0,0,0,0,0,0,0,0,0,0,0,0,0,0,0,0,0,0,0,0,0,0,0,0,0,0,0,2.5196,2.5196,0,2.5252,2.5252,2.5253,2.5222,2.522,2.5219,2.5217,2.5273,2.5276,2.5279,0,0,0,0,0,0,0,0,0,0,0,0,0,2.5061,2.5064,2.5195,2.5196,2.5197,2.5252,2.5252,2.5253,2.5222,2.522,2.5218,2.5217,2.5272,2.5275,2.5279,0,0,0,0,0,0,0,0,0,0,0,0,0,2.5119,2.5065,2.5195,2.5188,2.5188,2.5251,2.5252,2.5253,2.5222,2.522,2.5218,2.5216,2.5271,2.5275,2.5279,2.5353,0,0,2.5293,2.5295,0,0,0,0,0,0,0,0,2.5115,2.5124,2.5188,2.5189,2.5189,2.5227,2.5225,2.5286,2.5223,2.5209,2.5217,2.5215,2.526,2.5265,2.528,2.5355,2.5358,2.5293,2.5296,2.5298,2.5299,0,0,0,0,0,0,0,2.5111,2.5121,2.5218,2.5189,2.519,2.5182,2.5187,2.5237,2.5247,2.521,2.5208,2.5215,2.5259,2.5276,2.5281,2.5358,2.5293,2.5297,2.53,2.5301,2.5498,2.5501,0,0,0,0,0,0,2.5108,2.5118,2.5216,2.5219,2.5146,2.5186,2.5192,2.5217,2.5246,2.5248,2.5217,2.5214,2.527,2.5276,2.5283,2.5372,2.5298,2.5302,2.5304,2.5496,2.5499,2.5502,0,0,0,0,0,0,2.5105,2.5117,2.5214,2.5168,2.518,2.5191,2.5219,2.522,2.5236,2.5251,2.5253,2.5233,2.5268,2.5277,2.5336,2.5373,2.5304,2.5308,2.5493,2.5497,2.55,2.5549,0,0,0,0,0,0,2.5102,2.5116,2.5144,2.5169,2.5182,2.5266,2.5221,2.5222,2.5244,2.524,2.5266,2.5268,2.5267,2.533,2.534,2.5378,2.5311,2.5489,2.5494,2.5499,2.5544,2.5554,2.5563,0,0,0,0,0,2.5097,2.5155,2.5146,2.5158,2.5217,2.5268,2.5275,2.5273,2.5247,2.5276,2.5286,2.5267,2.5368,2.5336,2.5348,2.5387,2.5487,2.5493,2.5499,2.554,2.5552,2.5562,0,0,0,0,0,0,2.5132,2.5158,2.5148,2.5216,2.524,2.5263,2.5298,2.5286,2.5318,2.5312,2.5308,2.5314,2.5376,2.5387,2.5352,2.5461,2.5423,2.5432,2.5451,2.5462,2.5471,2.5467,2.5315,0,0,0,0,0,2.5149,2.5188,2.5207,2.5265,2.5278,2.5286,2.5308,2.5305,2.5329,2.5339,2.5353,2.5378,2.5415,2.5439,2.5474,2.5546,2.5552,2.5579,2.5588,2.5596,2.5603,2.5643,2.5656,2.5521,2.5521,2.5521,0,0,2.5181,2.52,2.5225,2.5273,2.5291,2.5332,2.5295,2.5339,2.5369,2.5346,2.5403,2.5414,2.5441,2.5508,2.5538,2.5519,2.5642,2.5603,2.5609,2.5612,2.5651,2.5663,2.5675,2.5525,2.5524,2.5524,0,0,2.5262,2.528,2.5331,2.5351,2.538,2.5385,2.5398,2.5423,2.543,2.5487,2.5471,2.5507,2.5571,2.5591,2.561,2.5702,2.5687,2.5713,2.5761,2.5801,2.5811,2.5821,2.5854,2.5866,2.5721,2.5721,2.5721,0,2.5299,2.536,2.5358,2.5405,2.5427,2.5409,2.5461,2.548,2.5519,2.5534,2.5514,2.5595,2.5611,2.5683,2.5706,2.5721,2.5736,2.571,2.581,2.5819,2.5828,2.586,2.5872,2.5724,2.5723,2.5723,2.5723,0,2.5404,2.5447,2.5485,2.5524,2.5551,2.56,2.5605,2.5632,2.5628,2.5635,2.5695,2.5715,2.5754,2.5771,2.5766,2.5843,2.5831,2.581,2.5772,2.5844,2.5874,2.5886,2.5728,2.5727,2.5726,2.5725,0,0,2.5507,2.5547,2.5561,2.5579,2.5611,2.5644,2.5693,2.5733,2.5756,2.5784,2.5825,2.5881,2.5863,2.5884,2.5882,2.5916,2.5989,2.5892,2.5892,2.5909,2.6076,2.6091,2.6105,2.598,2.5982,2.5984,2.6074,0,2.559,2.5676,2.5677,2.5756,2.5796,2.5781,2.5823,2.5848,2.5857,2.5892,2.5902,2.5942,2.5915,2.5928,2.5962,2.5973,2.6022,2.5966,2.6018,2.602,2.6011,2.612,2.6136,2.622,2.6085,2.6087,2.6089,0,2.5698,2.5732,2.5815,2.5843,2.586,2.5898,2.5935,2.5969,2.5997,2.6002,2.6027,2.602,2.607,2.6032,2.6101,2.6063,2.6085,2.6094,2.6097,2.6101,2.6058,2.6128,2.6246,2.6259,2.6107,2.6105,2.6104,0,2.5766,2.5831,2.589,2.5906,2.594,2.5967,2.5983,2.6009,2.6033,2.6066,2.6082,2.612,2.614,2.617,2.6174,2.6145,2.6244,2.6206,2.6249,2.6249,2.627,2.6268,2.6394,2.6284,2.6284,2.6284,2.6283,0,2.5858,2.591,2.5921,2.5957,2.6014,2.6015,2.6073,2.6086,2.6109,2.6148,2.6137,2.6173,2.6176,2.6213,2.6217,2.6274,2.6284,2.6289,2.6289,2.629,2.6289,2.6303,2.6297,2.6287,2.6286,2.6286,2.6285,0,2.5943,2.5952,2.6015,2.6043,2.6051,2.6093,2.6117,2.6151,2.616,2.6209,2.6221,2.6235,2.6279,2.6286,2.6337,2.6339,2.6408,2.6402,2.6399,2.6398,2.6442,2.6438,2.658,2.6599,2.6477,2.6478,2.6479,0,2.6001,2.6041,2.6074,2.6099,2.6117,2.6157,2.6183,2.6186,2.6213,2.6249,2.628,2.6323,2.6358,2.6429,2.6443,2.6483,2.6478,2.6525,2.6484,2.6484,2.6479,2.6477,2.6481,2.6533,2.6534,2.6535,2.6536,0,2.6104,2.6107,2.6145,2.6185,2.6216,2.6247,2.6276,2.6298,2.6305,2.6336,2.6381,2.6408,2.6462,2.6505,2.6545,2.6561,2.655,2.655,2.6562,2.6563,2.6559,2.6562,2.6421,2.6546,2.6545,2.6544,2.6544,2.6543,2.6177,2.6212,2.6242,2.6284,2.6307,2.6336,2.637,2.6385,2.6423,2.6467,2.6467,2.6517,2.6545,2.6598,2.6617,2.6656,2.6641,2.6658,2.6663,2.6667,2.6672,2.6554,2.6663,2.6663,2.6663,2.6663,2.6662,0,2.628,2.6299,2.6338,2.6381,2.6415,2.6403,2.6436,2.6465,2.6509,2.6537,2.6572,2.6625,2.6668,2.6687,2.6729,2.6757,2.6753,2.6767,2.6765,2.6769,2.6683,2.6668,2.677,2.677,2.677,2.677,2.677,2.677,2.6337,2.6397,2.6404,2.6475,2.6493,2.6543,2.6563,2.6589,2.6612,2.6672,2.6708,2.672,2.6745,2.6789,2.6828,2.6832,2.6848,2.6865,2.6868,2.6786,2.6775,2.6765,2.6751,2.6869,2.6869,2.6951,2.6952,2.6952]}]]